Dara'a, Syria

8:53 AM EET on February 14, 2016 (GMT +0200)
Marka International | | Change Station
CLOSE
Current Station
Airport
Location: Amman,
Elevation: 2556 ft
Nearby Weather Stations

Elev 2556 ft 31.97 °N, 35.99 °E | Updated -407 second ago

Haze
Haze
59 °F
Feels Like 59 °F
N
0
Wind Variable Wind from North

Today
High -- | Low -- °F
--% Chance of Precip.
Yesterday
High -- | Low -- °F
Precip. -- in
Pressure 30.18 in
Visibility 2.5 miles
Clouds
Dew Point 34 °F
Humidity 39%
Rainfall 0.00 in
Snow Depth Not available.
6:20 AM 5:19 PM
Waxing Crescent, 38% visible
METAR OJAM 140700Z 00000KT 4000 HZ NSC 15/01 Q1022 NOSIG
Pressure 30.18 in
Visibility 2.5 miles
Clouds
Dew Point 34 °F
Humidity 39%
Rainfall 0.00 in
Snow Depth Not available.
6:20 AM 5:19 PM
Waxing Crescent, 38% visible
METAR OJAM 140700Z 00000KT 4000 HZ NSC 15/01 Q1022 NOSIG

10-Day Weather Forecast

No radar image for this location.
×

Almanac

Astronomy

Feb. 14, 2016 Rise Set
Actual Time
Civil Twilight
Nautical Twilight
Astronomical Twilight
Moon
Length of Visible Light
Length of Day
Tomorrow will be .
, % of the Moon is Illuminated

Today's Extremes

Country Highs Country Lows

Community

WunderPhotos

Upload Photos

1,892,757 photos uploaded!

WunderBlog® & News

Nearby

Air Quality

  Air Quality AQ Index Pollutant
Not available.

Snow Depth

Station Depth Elevation

Earthquake Activity

City Distance Mag. Time & Date
Minimum magnitude displayed is 2.5.

Coastal Water Temperatures

Place Temperature

Stations

Nearby Weather Stations

Station Location Temp. Windchill Dew Point Humidity Wind Precip. Elev Updated Type